| time (UTC) | temp C | wind direction | speed KPH | gust KPH | rain 1hr cm | rain 24hr cm | rain mn cm | humidity % | barometer mb |
| 20260506061458 | 8 | 33 | 3.2 | 8.0 | 0.43 | 1.60 | 0.84 | 96 | 1010.0 |
| 20260506044458 | 8 | 103 | 0.0 | 3.2 | 0.25 | 0.99 | 0.23 | 96 | 1010.3 |
| 20260506042958 | 9 | 103 | 0.0 | 4.8 | 0.20 | 0.89 | 0.13 | 96 | 1010.1 |
| 20260506041459 | 8 | 103 | 1.6 | 4.8 | 0.18 | 0.81 | 0.05 | 96 | 1010.1 |
| 20260506040007 | 8 | 103 | 0.0 | 3.2 | 0.15 | 0.76 | 0.00 | 96 | 1010.3 |
| 20260506034501 | 8 | 103 | 1.6 | 4.8 | 0.13 | 0.74 | 0.74 | 96 | 1010.5 |
| 20260506033004 | 8 | 103 | 1.6 | 4.8 | 0.08 | 0.69 | 0.69 | 96 | 1010.7 |
| 20260506031501 | 8 | 103 | 1.6 | 4.8 | 0.03 | 0.64 | 0.64 | 96 | 1010.8 |
| 20260506030005 | 8 | 103 | 1.6 | 4.8 | 0.00 | 0.61 | 0.61 | 96 | 1010.9 |
| 20260506024502 | 8 | 90 | 0.0 | 0.0 | 0.03 | 0.61 | 0.61 | 96 | 1010.9 |
| 20260506021502 | 8 | 137 | 0.0 | 3.2 | 0.10 | 0.61 | 0.61 | 95 | 1011.0 |
| 20260506020005 | 8 | 137 | 0.0 | 3.2 | 0.13 | 0.61 | 0.61 | 95 | 1010.9 |
| 20260506014501 | 8 | 137 | 0.0 | 0.0 | 0.10 | 0.58 | 0.58 | 95 | 1011.0 |
| 20260506011501 | 8 | 137 | 0.0 | 1.6 | 0.10 | 0.51 | 0.51 | 95 | 1011.0 |
| 20260506004501 | 8 | 137 | 0.0 | 0.0 | 0.10 | 0.48 | 0.48 | 94 | 1010.2 |
| 20260506003001 | 8 | 137 | 1.6 | 3.2 | 0.10 | 0.46 | 0.46 | 94 | 1010.2 |
| 20260506001501 | 8 | 137 | 0.0 | 1.6 | 0.08 | 0.41 | 0.41 | 93 | 1010.1 |
| 20260505231501 | 8 | 306 | 1.6 | 4.8 | 0.10 | 0.33 | 0.33 | 91 | 1010.0 |
| 20260505230004 | 9 | 289 | 1.6 | 4.8 | 0.10 | 0.30 | 0.30 | 90 | 1009.8 |
| 20260505224500 | 9 | 290 | 3.2 | 6.4 | 0.15 | 0.28 | 0.28 | 89 | 1009.5 |
| 20260505220006 | 11 | 343 | 6.4 | 14.5 | 0.15 | 0.20 | 0.20 | 83 | 1009.4 |
| 20260505214500 | 12 | 275 | 9.7 | 25.7 | 0.08 | 0.13 | 0.13 | 84 | 1009.1 |
| 20260505213000 | 15 | 304 | 9.7 | 27.4 | 0.00 | 0.05 | 0.05 | 77 | 1008.3 |
| 20260505204500 | 17 | 232 | 11.3 | 20.9 | 0.00 | 0.05 | 0.05 | 72 | 1006.9 |
| 20260505203001 | 17 | 213 | 11.3 | 22.5 | 0.00 | 0.05 | 0.05 | 71 | 1006.7 |
| 20260505201500 | 18 | 290 | 11.3 | 25.7 | 0.00 | 0.05 | 0.05 | 68 | 1006.4 |
| 20260505200004 | 18 | 273 | 14.5 | 27.4 | 0.00 | 0.05 | 0.05 | 68 | 1006.5 |
| 20260505194500 | 18 | 227 | 12.9 | 33.8 | 0.00 | 0.05 | 0.05 | 67 | 1006.7 |
| 20260505193000 | 18 | 169 | 14.5 | 30.6 | 0.00 | 0.05 | 0.05 | 66 | 1006.6 |
| 20260505191500 | 20 | 186 | 14.5 | 30.6 | 0.00 | 0.05 | 0.05 | 65 | 1006.2 |
| 20260505183000 | 19 | 226 | 16.1 | 41.8 | 0.00 | 0.05 | 0.05 | 65 | 1006.4 |
| 20260505181500 | 19 | 273 | 16.1 | 38.6 | 0.00 | 0.05 | 0.05 | 66 | 1006.0 |
| 20260505180005 | 19 | 225 | 14.5 | 32.2 | 0.00 | 0.05 | 0.05 | 65 | 1005.9 |
| 20260505173000 | 19 | 236 | 14.5 | 43.5 | 0.00 | 0.05 | 0.05 | 65 | 1005.9 |
| 20260505171500 | 20 | 229 | 12.9 | 35.4 | 0.00 | 0.05 | 0.05 | 66 | 1005.6 |
| 20260505170006 | 19 | 270 | 14.5 | 30.6 | 0.00 | 0.05 | 0.05 | 66 | 1005.5 |
| 20260505164500 | 18 | 218 | 11.3 | 25.7 | 0.00 | 0.05 | 0.05 | 69 | 1005.5 |
| 20260505163000 | 17 | 205 | 9.7 | 20.9 | 0.00 | 0.05 | 0.05 | 69 | 1005.8 |
| 20260505161500 | 18 | 223 | 11.3 | 24.1 | 0.00 | 0.05 | 0.05 | 69 | 1005.8 |
| 20260505151459 | 18 | 265 | 8.0 | 20.9 | 0.00 | 0.05 | 0.05 | 67 | 1004.3 |
| 20260505124501 | 19 | 171 | 9.7 | 22.5 | 0.00 | 0.05 | 0.05 | 67 | 1003.6 |
| 20260505122959 | 18 | 163 | 8.0 | 17.7 | 0.00 | 0.05 | 0.05 | 72 | 1003.6 |
| 20260505121500 | 18 | 190 | 8.0 | 19.3 | 0.00 | 0.05 | 0.05 | 72 | 1003.4 |
| 20260505114500 | 17 | 167 | 8.0 | 19.3 | 0.00 | 0.05 | 0.05 | 73 | 1003.3 |
| 20260505112959 | 17 | 164 | 8.0 | 19.3 | 0.00 | 0.05 | 0.05 | 74 | 1003.3 |
| 20260505111459 | 17 | 182 | 9.7 | 16.1 | 0.00 | 0.05 | 0.05 | 74 | 1003.0 |
| 20260505101459 | 16 | 197 | 6.4 | 12.9 | 0.00 | 0.05 | 0.05 | 78 | 1002.5 |
| 20260505091459 | 14 | 113 | 1.6 | 6.4 | 0.00 | 0.05 | 0.05 | 85 | 1002.4 |
| 20260505090002 | 13 | 171 | 3.2 | 8.0 | 0.00 | 0.05 | 0.05 | 86 | 1002.6 |
| 20260505082958 | 13 | 174 | 1.6 | 3.2 | 0.03 | 0.05 | 0.05 | 89 | 1002.9 |
| 20260505081458 | 13 | 157 | 0.0 | 3.2 | 0.03 | 0.05 | 0.05 | 88 | 1003.0 |
| 20260505080002 | 14 | 189 | 1.6 | 4.8 | 0.03 | 0.05 | 0.05 | 87 | 1003.1 |
| 20260505074459 | 14 | 189 | 1.6 | 6.4 | 0.03 | 0.03 | 0.03 | 86 | 1003.3 |
| 20260505072959 | 15 | 250 | 3.2 | 8.0 | 0.03 | 0.03 | 0.03 | 86 | 1003.6 |
| 20260505071458 | 15 | 208 | 3.2 | 9.7 | 0.03 | 0.03 | 0.03 | 86 | 1004.0 |